Temperature
15 15 15 15 15 14 14 13 13 13 13 14 14 14 14 15 15 15 15 15 15 15 15 15 15 16 16 16 16 16 16 16 16 16 16 16 16 16
14 14 15 15 15 14 14 14 13 13 13 13 14 14 14 14 14 14 14 14 15 15 15 15 15 15 15 15 15 15 15 15 16 16 16 16 16 16
14 14 14 14 14 14 14 14 14 13 13 13 13 13 13 13 13 13 13 14 14 14 14 14 14 14 14 14 15 15 15 15 15 15 15 16 16 15
13 13 14 14 14 14 14 14 14 14 13 13 13 13 13 13 13 13 13 13 13 13 13 13 13 13 13 14 14 14 14 14 14 14 14 15 15 15
12 13 13 13 14 14 14 14 14 14 13 13 13 12 12 12 12 12 12 12 12 12 12 12 12 12 13 13 13 13 13 13 13 13 13 14 14 14
12 12 13 13 13 14 13 14 14 14 13 13 13 12 12 12 12 12 11 11 11 11 12 12 12 12 12 12 12 12 12 12 12 13 13 13 13 13
11 12 12 13 13 13 13 13 13 13 13 13 12 12 12 11 11 11 11 11 11 11 11 11 11 11 11 12 12 12 12 12 12 12 12 12 12 12
11 11 12 12 13 13 13 13 13 13 13 13 12 12 12 12 11 11 11 11 10 10 11 10 11 11 11 11 11 11 11 11 11 11 12 12 12 12
10 11 11 12 12 12 13 13 13 13 13 13 13 12 12 12 11 11 11 11 11 10 11 10 10 10 10 10 10 10 11 11 11 11 11 11 10 10
10 10 11 11 12 12 12 12 12 12 13 13 13 13 12 12 12 12 11 11 10 10 11 10 10 10 9 9 9 9 10 10 10 10 10 10 10 10
9 10 10 11 11 11 12 12 12 12 12 12 12 12 12 12 11 11 11 10 10 10 10 10 10 9 9 9 9 9 9 9 9 9 9 9 9 9
9 10 10 10 11 11 11 12 12 12 12 11 11 11 11 11 11 11 11 11 10 9 10 10 10 9 8 8 8 8 8 8 8 8 8 8 8 8
9 9 10 10 10 11 11 12 12 12 11 11 11 11 11 11 11 11 11 11 11 11 10 10 10 10 9 8 8 8 8 8 8 8 8 8 8 8
8 9 9 10 10 10 11 11 11 11 11 11 11 11 11 11 11 11 11 11 11 12 11 11 11 10 10 9 8 8 8 8 8 8 8 8 8 8
8 8 9 9 10 10 10 10 11 11 11 11 11 11 11 11 11 11 11 11 11 11 11 11 11 10 10 10 9 8 8 8 8 8 8 8 8 7
8 8 8 9 9 10 10 10 10 11 11 11 11 10 11 11 11 11 11 11 11 11 11 11 11 11 10 10 9 9 8 8 8 8 8 8 7 7
7 7 8 8 9 9 9 9 10 10 10 10 10 10 10 10 10 11 11 11 11 11 10 10 10 10 10 10 9 9 8 8 8 8 8 8 8 8
7 7 7 8 8 9 9 9 9 10 10 10 10 10 10 10 10 10 10 11 11 10 10 10 10 10 9 9 9 9 9 8 8 8 8 8 8 8
7 7 8 8 8 9 9 9 9 10 10 10 10 10 10 10 10 10 10 10 10 10 10 10 10 10 10 9 9 9 9 9 8 8 8 8 8 8
7 7 8 8 8 9 9 9 10 10 10 10 10 10 10 10 10 10 10 10 10 9 9 10 10 10 10 10 9 9 9 9 9 9 9 8 8 8
7 7 8 8 9 9 9 10 10 10 10 10 10 10 10 10 10 10 10 10 10 10 10 10 10 10 10 10 9 9 9 9 9 9 9 9 9 9
7 8 8 8 9 9 10 10 10 10 10 10 10 10 10 10 10 10 10 10 10 10 10 10 10 10 10 10 10 10 10 10 9 9 9 9 9 9
7 8 9 9 9 10 10 10 10 10 10 10 10 10 10 10 10 10 10 10 10 10 10 10 10 10 10 10 10 10 10 10 10 10 10 9 9 9
Wind_Speed
8 8 7 6 6 6 6 6 5 4 3 2 1 1 2 4 6 7 7 10 10 9 8 6 6 5 4 3 2 2 2 4 6 9 13 16 19 22
7 8 8 6 6 6 6 6 7 6 4 2 2 2 3 5 8 8 10 12 12 12 11 11 10 11 11 10 10 9 8 7 6 5 4 6 9 12
8 8 9 7 6 6 5 6 6 6 5 3 2 3 4 7 7 7 9 8 10 13 14 14 14 14 15 15 15 15 15 14 14 14 13 12 11 10
9 8 9 7 7 6 5 6 6 6 5 4 3 3 4 8 8 8 6 8 9 14 16 17 17 17 17 17 18 18 18 17 17 17 18 17 17 16
9 9 9 8 8 6 6 6 5 5 5 6 5 3 4 7 8 8 9 7 9 13 16 17 17 18 18 18 18 18 18 19 19 19 19 19 20 19
8 9 9 9 9 8 6 6 5 6 6 8 7 6 6 6 8 8 7 5 6 8 10 12 16 17 17 17 17 18 18 19 20 20 20 21 21 20
8 8 9 11 11 9 7 7 7 7 7 8 8 7 8 9 8 6 9 8 6 4 6 6 7 8 10 13 15 16 17 18 19 19 20 21 21 21
9 8 8 9 11 12 12 12 12 11 10 9 7 10 10 9 8 10 10 8 5 2 4 5 5 6 5 8 12 14 16 17 18 19 20 20 20 20
8 8 8 7 8 6 8 10 11 13 13 11 12 11 11 12 11 11 9 6 5 6 5 5 4 5 4 9 12 13 14 15 16 18 19 19 19 20
9 9 9 7 8 8 8 7 6 7 9 9 10 10 11 12 11 11 10 8 7 5 4 4 3 3 4 6 10 11 13 14 15 16 17 18 19 19
8 9 9 8 11 12 10 9 8 6 8 11 12 12 15 15 13 11 10 11 9 4 2 4 3 3 3 3 6 9 11 13 15 16 16 16 16 16
6 7 10 11 12 14 12 12 12 9 10 12 12 12 12 13 14 11 11 12 9 4 3 4 4 4 3 2 2 4 6 10 13 15 15 15 14 12
6 6 6 11 13 14 12 11 14 13 12 12 11 10 8 8 7 7 8 12 9 4 7 5 4 3 4 3 1 1 1 3 6 7 10 12 12 11
6 5 6 12 13 13 11 13 17 15 11 11 10 9 8 7 6 7 7 6 5 7 10 8 5 5 5 4 3 1 1 1 3 3 5 8 8 9
5 7 8 11 12 11 14 17 15 12 11 11 10 8 6 6 7 8 8 8 7 6 9 7 7 6 5 5 5 4 3 1 2 3 3 3 2 3
4 6 9 11 10 11 13 11 9 9 11 10 9 7 6 6 7 8 8 8 7 5 6 7 10 10 5 4 5 4 4 4 3 3 3 2 2 3
5 5 5 7 8 8 8 8 8 9 9 8 9 9 8 8 6 5 6 6 6 5 4 5 7 9 7 6 5 4 4 3 3 4 3 2 2 4
6 6 7 8 10 10 10 9 8 9 9 10 9 9 8 8 6 5 5 7 8 6 5 5 6 6 5 6 3 5 4 3 3 3 3 3 3 4
5 5 7 8 9 9 9 9 8 9 9 10 10 9 8 8 7 7 6 6 6 5 4 4 5 6 6 3 2 1 5 4 3 2 3 4 4 5
5 5 6 7 8 9 9 8 9 9 9 9 9 8 8 7 7 7 7 7 6 5 4 3 4 6 7 7 4 3 4 5 4 4 3 1 1 2
5 5 5 6 7 7 8 8 9 8 9 9 8 8 8 7 7 7 7 10 6 5 5 5 4 6 4 5 3 1 3 7 8 5 5 3 1 1
4 4 4 5 6 7 8 8 8 8 9 8 7 8 7 8 8 9 8 8 6 6 6 4 4 4 3 4 5 4 3 3 5 9 9 9 6 6
4 4 4 5 6 7 8 9 9 8 8 8 8 8 8 7 7 8 8 8 7 6 5 5 3 3 3 4 5 4 5 4 3 3 6 15 20 19
Wind_Direction
235 236 236 239 231 228 223 217 224 249 258 239 222 66 93 98 101 97 97 96 94 91 88 88 90 90 89 90 101 140 187 210 217 223 223 222 222 221
236 236 240 242 238 232 226 219 212 216 231 221 203 156 128 113 104 100 98 94 88 88 86 84 84 82 80 78 77 78 83 89 99 109 135 178 198 206
247 239 240 238 241 238 228 220 214 205 220 215 181 148 132 126 114 103 96 88 85 86 86 83 81 81 80 79 77 76 77 79 81 83 84 88 94 108
253 243 243 243 240 234 225 222 215 199 193 193 168 153 137 137 125 113 102 93 88 84 84 82 80 80 79 79 78 77 76 77 79 79 81 82 85 87
254 245 243 237 240 232 224 221 212 201 183 174 167 148 135 136 125 112 104 99 94 89 82 79 79 79 78 79 79 79 79 79 79 80 80 82 83 84
256 246 240 232 230 223 223 216 199 184 172 166 161 153 144 138 132 128 117 102 98 90 83 81 78 76 76 79 82 82 83 83 83 82 82 82 83 84
264 251 241 234 225 218 216 203 185 179 173 167 164 157 154 153 148 140 128 116 90 91 92 74 70 65 63 70 79 84 85 85 86 86 86 86 86 85
262 258 246 235 226 219 218 204 188 181 178 172 170 166 162 152 142 142 139 137 122 128 100 81 69 69 55 68 79 86 88 89 91 91 90 89 89 89
252 248 249 230 215 209 206 195 193 188 180 172 168 166 160 158 150 148 150 137 125 149 118 88 65 69 54 66 78 85 91 95 97 99 98 96 93 92
245 238 235 223 211 193 177 170 171 175 173 168 164 158 155 155 153 149 144 118 106 119 111 107 89 74 56 49 67 82 92 99 106 109 107 103 99 95
248 237 225 215 206 185 168 160 152 147 142 140 140 142 147 149 146 140 140 138 137 145 127 109 122 95 63 41 48 72 86 98 109 116 116 112 107 98
251 235 220 209 196 182 171 162 159 153 141 131 128 130 138 145 147 153 154 151 145 149 175 120 144 126 89 35 37 53 72 88 104 116 123 121 114 101
245 233 214 196 188 181 174 166 158 147 140 134 130 127 125 131 139 144 150 154 153 153 162 135 145 129 123 133 90 55 84 90 97 107 122 128 124 117
236 226 201 185 176 171 166 150 142 136 134 132 131 132 134 137 136 135 133 131 139 150 159 149 139 147 128 124 141 127 97 116 120 120 124 125 116 113
224 211 183 175 165 156 151 146 143 140 139 137 138 138 134 132 122 114 107 102 84 99 146 152 138 136 131 137 145 144 141 167 157 146 150 150 154 132
203 181 165 166 157 142 143 145 141 140 141 138 134 127 117 116 122 125 125 119 99 66 51 106 136 135 125 125 134 145 155 163 170 170 157 167 193 187
159 154 157 157 151 143 142 137 132 133 129 129 130 129 126 122 119 115 120 112 113 116 87 55 68 88 106 129 128 140 145 150 165 159 148 167 228 216
153 158 160 161 155 150 147 137 134 137 136 134 135 136 136 133 124 111 113 122 125 125 123 123 112 92 63 35 79 142 143 154 159 155 147 158 224 240
150 153 154 157 151 148 145 139 138 142 140 142 144 142 138 134 131 128 123 122 125 128 131 131 123 118 122 139 313 151 156 156 147 151 172 177 206 229
146 149 146 146 145 143 141 135 136 140 141 144 144 144 143 142 141 142 142 139 137 130 128 132 144 147 156 168 182 216 185 161 161 173 183 176 257 302
139 140 135 139 141 139 139 138 140 145 146 145 147 150 149 144 147 153 153 152 141 140 154 180 194 157 120 104 112 229 247 209 193 177 171 159 192 263
133 142 144 145 145 144 142 141 142 145 146 145 150 152 151 150 153 155 156 159 161 160 166 164 134 127 127 151 179 204 230 245 229 223 213 195 177 198
155 156 156 154 149 145 145 147 148 151 153 151 152 153 152 151 152 153 157 158 158 155 144 147 149 148 157 165 179 201 220 228 230 241 252 241 234 235
Height
1467 1467 1465 1464 1464 1463 1463 1463 1464 1462 1462 1462 1463 1463 1464 1465 1466 1467 1468 1469 1469 1470 1471 1472 1472 1473 1474 1475 1476 1477 1479 1481 1483 1485 1487 1490 1493 1496
1461 1461 1460 1459 1458 1458 1458 1458 1458 1459 1458 1459 1460 1461 1461 1462 1463 1464 1465 1466 1467 1467 1468 1468 1469 1469 1470 1471 1472 1473 1474 1476 1478 1479 1482 1484 1487 1490
1454 1454 1453 1453 1452 1452 1452 1452 1452 1453 1454 1455 1457 1458 1459 1460 1461 1463 1464 1464 1465 1466 1466 1466 1467 1467 1468 1469 1470 1471 1472 1473 1474 1476 1478 1480 1482 1485
1446 1447 1447 1447 1446 1446 1446 1446 1447 1448 1449 1451 1453 1455 1456 1458 1460 1461 1463 1464 1464 1465 1466 1466 1467 1467 1468 1469 1469 1471 1471 1472 1473 1474 1476 1477 1479 1481
1439 1439 1440 1440 1439 1439 1440 1441 1442 1443 1444 1446 1449 1451 1453 1456 1458 1460 1462 1463 1464 1465 1466 1467 1468 1468 1469 1470 1471 1471 1472 1473 1474 1475 1476 1477 1479 1480
1431 1432 1432 1433 1433 1433 1434 1435 1436 1437 1439 1441 1445 1448 1450 1453 1456 1458 1461 1463 1465 1466 1468 1469 1469 1470 1471 1472 1472 1473 1474 1475 1476 1477 1478 1479 1480 1481
1423 1424 1424 1425 1426 1427 1428 1429 1431 1432 1434 1436 1440 1443 1447 1450 1454 1457 1460 1463 1466 1468 1469 1470 1472 1472 1473 1474 1475 1476 1477 1477 1478 1479 1480 1481 1482 1483
1416 1416 1417 1418 1419 1420 1422 1423 1425 1427 1428 1431 1435 1438 1442 1447 1451 1455 1458 1461 1465 1469 1470 1472 1474 1475 1476 1477 1477 1478 1479 1480 1480 1481 1482 1483 1484 1485
1408 1409 1409 1410 1412 1414 1416 1418 1420 1422 1425 1427 1430 1434 1438 1443 1448 1453 1458 1461 1463 1468 1471 1472 1475 1476 1478 1479 1479 1480 1481 1482 1483 1483 1484 1485 1486 1487
1401 1401 1402 1404 1406 1408 1410 1413 1415 1418 1421 1425 1428 1432 1437 1442 1447 1452 1457 1461 1466 1470 1473 1473 1476 1478 1480 1481 1482 1483 1483 1484 1485 1486 1486 1487 1488 1489
1394 1394 1396 1397 1400 1402 1405 1408 1412 1415 1419 1423 1427 1432 1437 1442 1447 1452 1456 1460 1464 1469 1473 1474 1477 1479 1482 1483 1484 1485 1486 1486 1487 1488 1489 1490 1491 1491
1387 1387 1389 1391 1394 1397 1401 1404 1408 1411 1415 1420 1426 1431 1437 1442 1447 1451 1455 1459 1463 1468 1473 1475 1477 1480 1483 1485 1487 1488 1489 1489 1490 1491 1491 1492 1493 1493
1381 1381 1383 1386 1389 1393 1397 1401 1405 1409 1414 1418 1424 1430 1435 1441 1446 1451 1456 1459 1462 1466 1471 1474 1477 1479 1482 1486 1488 1489 1490 1491 1492 1493 1494 1494 1495 1495
1375 1376 1378 1381 1385 1389 1394 1399 1403 1408 1413 1418 1423 1429 1434 1440 1445 1451 1456 1460 1464 1467 1470 1474 1476 1479 1481 1484 1487 1490 1491 1493 1494 1494 1495 1496 1496 1497
1370 1371 1373 1377 1382 1387 1392 1397 1402 1406 1411 1417 1423 1429 1435 1440 1445 1450 1455 1460 1465 1468 1472 1475 1477 1479 1482 1484 1486 1489 1491 1493 1494 1495 1496 1497 1497 1497
1365 1367 1370 1374 1380 1385 1390 1395 1401 1406 1411 1416 1423 1429 1435 1440 1445 1450 1454 1459 1464 1468 1471 1475 1478 1480 1482 1485 1487 1489 1491 1493 1494 1495 1496 1497 1497 1498
1362 1364 1368 1372 1377 1383 1389 1394 1400 1406 1412 1418 1423 1429 1435 1440 1446 1450 1455 1459 1463 1467 1470 1474 1477 1481 1483 1486 1487 1489 1491 1492 1494 1495 1496 1497 1497 1497
1360 1362 1366 1371 1376 1382 1388 1394 1401 1407 1413 1419 1425 1430 1435 1441 1445 1450 1455 1459 1463 1466 1470 1473 1477 1480 1483 1487 1489 1489 1491 1492 1493 1494 1495 1496 1496 1496
1359 1362 1366 1371 1377 1383 1389 1395 1402 1408 1415 1420 1426 1431 1436 1441 1446 1450 1455 1459 1463 1466 1470 1473 1476 1479 1482 1485 1488 1490 1490 1491 1492 1493 1494 1494 1495 1495
1360 1363 1368 1373 1379 1385 1391 1397 1404 1410 1416 1422 1427 1432 1437 1442 1446 1451 1455 1459 1462 1466 1470 1473 1477 1479 1482 1484 1486 1488 1490 1491 1491 1492 1492 1493 1493 1493
1361 1365 1371 1376 1382 1388 1394 1400 1406 1412 1418 1423 1428 1434 1438 1443 1447 1452 1455 1459 1463 1466 1469 1473 1476 1479 1482 1484 1486 1487 1488 1489 1490 1491 1491 1491 1491 1491
1364 1369 1375 1380 1386 1392 1397 1403 1409 1414 1420 1425 1430 1435 1439 1444 1448 1452 1455 1459 1463 1466 1469 1473 1475 1478 1480 1482 1483 1485 1487 1488 1488 1489 1489 1489 1488 1487
1368 1374 1379 1384 1390 1395 1400 1406 1411 1416 1421 1426 1431 1435 1440 1444 1448 1452 1456 1459 1462 1466 1469 1471 1474 1476 1479 1481 1482 1483 1485 1485 1486 1486 1486 1485 1485 1484